This is the latest recevied weather packets stored in our database for station/object NZ3C. If no packets are shown the sender has not sent any weather packets the latest 10 day(s).
| Time | Temp. | Humidity | Pressure | Rain* | Wind** | Luminosity | Snow |
|---|---|---|---|---|---|---|---|
| 1777896058 | 13.33° C | 79% | 1019.4 hPa | 0 mm | - | 109 W/m² | - |
| 1777895756 | 12.78° C | 81% | 1019.3 hPa | 0 mm | - | 98 W/m² | - |
| 1777895453 | 12.22° C | 82% | 1019.2 hPa | 0 mm | - | 83 W/m² | - |
| 1777895151 | 11.67° C | 85% | 1019.3 hPa | 0 mm | - | 70 W/m² | - |
| 1777894848 | 11.11° C | 85% | 1019.4 hPa | 0 mm | - | 57 W/m² | - |
| 1777894545 | 11.11° C | 86% | 1019.3 hPa | 0 mm | - | 44 W/m² | - |
| 1777894243 | 10.56° C | 87% | 1019.4 hPa | 0 mm | - | 46 W/m² | - |
| 1777893939 | 10.56° C | 88% | 1019.4 hPa | 0 mm | - | 39 W/m² | - |
| 1777893635 | 10° C | 90% | 1019.4 hPa | 0 mm | - | 37 W/m² | - |
| 1777893332 | 9.44° C | 92% | 1019.5 hPa | 0 mm | - | 34 W/m² | - |
| 1777893028 | 9.44° C | 93% | 1019.3 hPa | 0 mm | - | 31 W/m² | - |
| 1777892725 | 8.89° C | 94% | 1019.5 hPa | 0 mm | - | 28 W/m² | - |
| 1777892421 | 8.89° C | 94% | 1019.2 hPa | 0 mm | - | 25 W/m² | - |
| 1777892117 | 8.89° C | 95% | 1019.2 hPa | 0 mm | - | 23 W/m² | - |
| 1777891814 | 8.33° C | 95% | 1019.4 hPa | 0 mm | - | 20 W/m² | - |
| 1777891511 | 8.33° C | 95% | 1019.4 hPa | 0 mm | - | 17 W/m² | - |
| 1777891208 | 8.33° C | 95% | 1019.3 hPa | 0 mm | - | 14 W/m² | - |
| 1777890902 | 8.33° C | 95% | 1019.3 hPa | 0 mm | - | 11 W/m² | - |
| 1777890598 | 7.78° C | 95% | 1019.2 hPa | 0 mm | - | 8 W/m² | - |
| 1777890293 | 7.78° C | 95% | 1019.4 hPa | 0 mm | - | 5 W/m² | - |
| 1777889990 | 7.78° C | 95% | 1019.1 hPa | 0 mm | - | 3 W/m² | - |
| 1777889687 | 7.78° C | 95% | 1019.4 hPa | 0 mm | - | 2 W/m² | - |
| 1777889384 | 7.78° C | 95% | 1019.3 hPa | 0 mm | - | 1 W/m² | - |
| 1777889082 | 7.78° C | 95% | 1019.2 hPa | 0 mm | - | 0 W/m² | - |
| 1777888779 | 7.78° C | 95% | 1019.2 hPa | 0 mm | - | 0 W/m² | - |
* Rain latest hour (hover to see other rain measurements)
** Current wind speed in m/s (hover to see current wind gust speed)